Chillicothe, MO

12:59 AM CDT on June 28, 2017 (GMT -0500)
Chillicothe

Weather History for KCDJ - January, 2013

Change the Weather History Date:

Thursday, January 31, 2013

  Actual Average (KIRK) Record (KIRK)
Temperature  
Mean Temperature 13 °F -  
Max Temperature 21 °F 38 °F 69 °F (1989)
Min Temperature 5 °F 16 °F -15 °F (1936)
Degree Days  
Heating Degree Days 52    
Moisture  
Dew Point 3 °F    
Average Humidity 61    
Maximum Humidity 72    
Minimum Humidity 54    
Precipitation  
Precipitation 0.00 in - - ()
Sea Level Pressure  
Sea Level Pressure 30.25 in    
Wind  
Wind Speed 8 mph (NW)    
Max Wind Speed 17 mph    
Max Gust Speed 29 mph    
Averages and records for this station are not official NWS values.
T = Trace of Precipitation, MM = Missing Value Source: NWS Daily Summary

Daily Weather History Graph

Daily Weather History Graph

Search for Another Location

Airport or City:

Trip Planner

Search our weather history database for the weather conditions in past years. The results will help you decide how hot, cold, wet, or windy it might be!

Date:

Astronomy

Jan. 31, 2013 Rise Set
Actual Time 7:23 AM CST 5:33 PM CST
Civil Twilight 6:54 AM CST 6:01 PM CST
Nautical Twilight 6:22 AM CST 6:33 PM CST
Astronomical Twilight 5:50 AM CST 7:05 PM CST
Moon 10:35 PM CST (1/31) 9:23 AM CST (1/31)
Length of Visible Light 11h 07m
Length of Day
10h 09m
Waning Gibbous, 79% of the Moon is Illuminated
Jan 31
Waning Gibbous
Feb 3
Last Quarter
Feb 10
New
Feb 17
First Quarter
Feb 25
Full

Hourly Weather History & Observations

Time (CST) Temp. Windchill Dew Point Humidity Pressure Visibility Wind Dir Wind Speed Gust Speed Precip Events Conditions
12:52 AM 21.9 °F 14.5 °F 14.0 °F 72% 30.01 in - WSW 5.8 mph - N/A   Unknown
1:52 AM 21.9 °F 14.5 °F 14.0 °F 72% 30.01 in - Variable 5.8 mph - N/A   Unknown
2:52 AM 21.9 °F 14.5 °F 14.0 °F 72% 30.02 in - Variable 5.8 mph - N/A   Unknown
3:52 AM 21.9 °F 13.4 °F 12.9 °F 68% 30.01 in - West 6.9 mph - N/A   Unknown
4:52 AM 21.9 °F 17.2 °F 12.9 °F 68% 30.02 in - Variable 3.5 mph - N/A   Unknown
5:52 AM 21.0 °F 11.4 °F 12.0 °F 68% 30.03 in - NW 8.1 mph - N/A   Unknown
6:52 AM 21.0 °F 13.4 °F 12.0 °F 68% 30.06 in - NW 5.8 mph - N/A   Unknown
7:52 AM 17.1 °F 5.0 °F 7.0 °F 65% 30.10 in - NW 10.4 mph - N/A   Unknown
8:52 AM 16.0 °F 2.3 °F 5.0 °F 62% 30.13 in - NW 12.7 mph 19.6 mph N/A   Unknown
9:52 AM 16.0 °F 2.9 °F 3.0 °F 57% 30.17 in - WNW 11.5 mph 19.6 mph N/A   Unknown
10:52 AM 15.1 °F -0.1 °F 1.0 °F 54% 30.21 in - WNW 15.0 mph 21.9 mph N/A   Unknown
11:52 AM 15.1 °F -0.1 °F 1.0 °F 54% 30.23 in - WNW 15.0 mph 21.9 mph N/A   Unknown
12:52 PM 15.1 °F -1.1 °F 1.0 °F 54% 30.26 in - NW 17.3 mph 28.8 mph N/A   Unknown
1:52 PM 16.0 °F 1.7 °F 1.9 °F 54% 30.29 in - NW 13.8 mph 21.9 mph N/A   Unknown
2:52 PM 15.1 °F 2.5 °F 1.9 °F 56% 30.31 in - NW 10.4 mph 21.9 mph N/A   Unknown
3:52 PM 12.9 °F -0.9 °F 1.9 °F 62% 30.34 in - NW 11.5 mph 23.0 mph N/A   Unknown
4:52 PM 10.9 °F -2.6 °F -2.0 °F 56% 30.38 in - NW 10.4 mph 24.2 mph N/A   Unknown
5:52 PM 10.0 °F -6.5 °F -2.9 °F 56% 30.40 in - NW 15.0 mph 21.9 mph N/A   Unknown
6:52 PM 9.0 °F -5.1 °F -4.0 °F 56% 30.44 in - NW 10.4 mph 21.9 mph N/A   Unknown
7:52 PM 8.1 °F -6.2 °F -4.0 °F 58% 30.47 in - NW 10.4 mph - N/A   Unknown
8:52 PM 7.0 °F -5.7 °F -5.1 °F 58% 30.49 in - NW 8.1 mph - N/A   Unknown
9:52 PM 6.1 °F -5.6 °F -5.1 °F 60% 30.51 in - NW 6.9 mph - N/A   Unknown
10:52 PM 5.0 °F -4.1 °F -6.0 °F 61% 30.54 in - West 4.6 mph - N/A   Unknown
11:52 PM 5.0 °F -4.1 °F -5.1 °F 63% 30.56 in - Variable 4.6 mph - N/A   Unknown